COSMOS 2477 (745)

Last updated on July 6, 2021, 3:40 p.m. UTC

1 37868U 11064B   21187.16806791 -.00000001  00000-0  00000+0 0  9992
2 37868  64.5826 134.2227 0019114 242.1304 179.4173  2.13101806 75262
UTC
Height (km)
Latitude
Longitude
Inclination
Orbital Period
UTC large
Height (km)
Speed (km/s)
/
Latitude / Longitude
Inclination (degrees)
Orbital Period (minutes)
Azimuth
Elevation
Range (km)
Doppler Factor
iOS Compass Heading
iOS Angle